This is the latest recevied weather packets stored in our database for station/object OE-11272. If no packets are shown the sender has not sent any weather packets the latest 10 day(s).
| Time | Temp. | Humidity | Pressure | Rain* | Wind** | Luminosity | Snow |
|---|---|---|---|---|---|---|---|
| 1788159327 | 17.22° C | 87% | 1016.8 hPa | 0 mm | - | 331 W/m² | - |
| 1788158500 | 17.22° C | 87% | 1016.7 hPa | 0 mm | - | 294 W/m² | - |
| 1788158126 | 17.22° C | 88% | 1016.8 hPa | 0 mm | - | 269 W/m² | - |
| 1788157526 | 16.11° C | 92% | 1017.3 hPa | 0 mm | - | 237 W/m² | - |
| 1788156699 | 15° C | 96% | 1017.5 hPa | 0 mm | - | 212 W/m² | - |
| 1788156327 | 15° C | 97% | 1017.3 hPa | 0 mm | - | 156 W/m² | - |
| 1788155727 | 13.89° C | 99% | 1017.4 hPa | 0 mm | - | 44 W/m² | - |
| 1788154900 | 13.89° C | 99% | 1017.4 hPa | 0 mm | - | 31 W/m² | - |
| 1788154526 | 13.89° C | 99% | 1017.3 hPa | 0 mm | - | 31 W/m² | - |
| 1788153926 | 13.33° C | 100% | 1017.3 hPa | 0 mm | - | 25 W/m² | - |
| 1788153100 | 13.33° C | 100% | 1017.4 hPa | 0 mm | - | 19 W/m² | - |
| 1788152727 | 13.89° C | 100% | 1017.4 hPa | 0 mm | - | 12 W/m² | - |
| 1788152126 | 13.89° C | 100% | 1017.3 hPa | 0 mm | - | 6 W/m² | - |
| 1788151299 | 13.33° C | 100% | 1017.2 hPa | 0 mm | - | 6 W/m² | - |
| 1788150927 | 13.89° C | 100% | 1017.3 hPa | 0 mm | - | 0 W/m² | - |
| 1788150327 | 13.33° C | 100% | 1017.5 hPa | 0 mm | - | 0 W/m² | - |
| 1788149738 | 13.33° C | 100% | 1017.2 hPa | 0 mm | - | 0 W/m² | - |
| 1788149127 | 13.89° C | 100% | 1017.2 hPa | 0 mm | - | 0 W/m² | - |
| 1788148526 | 13.33° C | 100% | 1017.2 hPa | 0 mm | - | 0 W/m² | - |
| 1788147927 | 13.33° C | 100% | 1017.4 hPa | 0 mm | - | 0 W/m² | - |
| 1788147327 | 13.33° C | 100% | 1017.3 hPa | 0 mm | - | 0 W/m² | - |
| 1788146727 | 13.89° C | 100% | 1017.4 hPa | 0 mm | - | 0 W/m² | - |
| 1788145899 | 13.89° C | 100% | 1017.4 hPa | 0 mm | - | 0 W/m² | - |
| 1788145526 | 13.89° C | 100% | 1017.3 hPa | 0 mm | - | 0 W/m² | - |
| 1788144926 | 13.89° C | 100% | 1017.2 hPa | 0 mm | - | 0 W/m² | - |
* Rain latest hour (hover to see other rain measurements)
** Current wind speed in m/s (hover to see current wind gust speed)